^^
Station Historical Data
Daily Summary for November 27, 2021 Units:  English    Metric   Both
Daily Weekly Monthly Yearly
  High: Low: Average:
Temperature: 29.8 °F 25 °F 26.8 °F
Dew Point: 24.1 °F 17.2 °F 19.8 °F
Humidity: 83% 71% 75%
Wind Speed: 5mph 0mph 2.2mph
Wind Gust: 7mph - -
Wind- - WSW
Pressure: 30.06 in 29.91 in -
Precipitation: 0.00 in    
 
 
Tabular Data for November 27, 2021
Time Temperature Dew Point Pressure Wind Wind Speed Wind Gust Humidity Rainfall Rate (Hourly) solar
00:00 25 °F 17.2 °F 30.06 in NNW 5 mph 5 mph 72% 0.00 in 0 W/m2
00:05 25 °F 17.2 °F 30.06 in NW 5 mph 5 mph 72% 0.00 in 0 W/m2
00:10 25 °F 17.2 °F 30.06 in NNW 4 mph 5 mph 72% 0.00 in 0 W/m2
00:15 25.1 °F 17.3 °F 30.06 in WNW 3 mph 5 mph 72% 0.00 in 0 W/m2
00:20 25.1 °F 17.3 °F 30.06 in NNW 4 mph 4 mph 72% 0.00 in 0 W/m2
00:25 25 °F 17.2 °F 30.06 in NNW 5 mph 7 mph 72% 0.00 in 0 W/m2
00:30 25.1 °F 17.3 °F 30.06 in WSW 4 mph 4 mph 72% 0.00 in 0 W/m2
00:35 25.1 °F 17.3 °F 30.06 in NNW 4 mph 6 mph 72% 0.00 in 0 W/m2
00:40 25.1 °F 17.3 °F 30.06 in NNW 4 mph 5 mph 72% 0.00 in 0 W/m2
00:45 25.1 °F 17.3 °F 30.06 in WNW 4 mph 5 mph 72% 0.00 in 0 W/m2
00:50 25.1 °F 17.3 °F 30.06 in NW 4 mph 4 mph 72% 0.00 in 0 W/m2
00:55 25.2 °F 17.4 °F 30.06 in West 4 mph 4 mph 72% 0.00 in 0 W/m2
01:00 25.2 °F 17.4 °F 30.05 in North 4 mph 4 mph 72% 0.00 in 0 W/m2
01:05 25.2 °F 17.8 °F 30.06 in NW 3 mph 4 mph 73% 0.00 in 0 W/m2
01:10 25.2 °F 17.4 °F 30.06 in WNW 4 mph 5 mph 72% 0.00 in 0 W/m2
01:15 25.2 °F 17.4 °F 30.06 in WNW 4 mph 5 mph 72% 0.00 in 0 W/m2
01:20 25.2 °F 17.4 °F 30.06 in WNW 4 mph 6 mph 72% 0.00 in 0 W/m2
01:25 25.2 °F 17.4 °F 30.06 in NNW 4 mph 6 mph 72% 0.00 in 0 W/m2
01:30 25.2 °F 17.4 °F 30.06 in NNW 5 mph 6 mph 72% 0.00 in 0 W/m2
01:35 25.2 °F 17.4 °F 30.06 in NW 5 mph 6 mph 72% 0.00 in 0 W/m2
01:40 25.2 °F 17.4 °F 30.05 in NW 4 mph 6 mph 72% 0.00 in 0 W/m2
01:45 25.3 °F 17.5 °F 30.05 in NNE 4 mph 6 mph 72% 0.00 in 0 W/m2
01:50 25.3 °F 17.5 °F 30.05 in West 4 mph 4 mph 72% 0.00 in 0 W/m2
01:55 25.3 °F 17.5 °F 30.05 in NW 4 mph 4 mph 72% 0.00 in 0 W/m2
02:00 25.3 °F 17.9 °F 30.05 in NW 3 mph 6 mph 73% 0.00 in 0 W/m2
02:05 25.3 °F 17.9 °F 30.05 in West 4 mph 6 mph 73% 0.00 in 0 W/m2
02:10 25.3 °F 17.5 °F 30.05 in WNW 4 mph 5 mph 72% 0.00 in 0 W/m2
02:15 25.4 °F 17.6 °F 30.05 in NW 4 mph 5 mph 72% 0.00 in 0 W/m2
02:20 25.4 °F 17.6 °F 30.05 in NW 4 mph 5 mph 72% 0.00 in 0 W/m2
02:25 25.4 °F 17.6 °F 30.05 in WSW 3 mph 5 mph 72% 0.00 in 0 W/m2
02:30 25.4 °F 17.6 °F 30.05 in North 3 mph 3 mph 72% 0.00 in 0 W/m2
02:35 25.4 °F 17.6 °F 30.05 in NW 4 mph 7 mph 72% 0.00 in 0 W/m2
02:40 25.4 °F 17.3 °F 30.04 in NNW 3 mph 3 mph 71% 0.00 in 0 W/m2
02:45 25.4 °F 17.3 °F 30.04 in WNW 4 mph 5 mph 71% 0.00 in 0 W/m2
02:50 25.4 °F 17.3 °F 30.05 in WNW 4 mph 4 mph 71% 0.00 in 0 W/m2
02:55 25.5 °F 17.4 °F 30.05 in WSW 4 mph 4 mph 71% 0.00 in 0 W/m2
03:00 25.6 °F 17.8 °F 30.05 in WNW 3 mph 5 mph 72% 0.00 in 0 W/m2
03:05 25.6 °F 17.8 °F 30.05 in WNW 3 mph 5 mph 72% 0.00 in 0 W/m2
03:10 25.7 °F 17.9 °F 30.05 in WNW 3 mph 3 mph 72% 0.00 in 0 W/m2
03:15 25.8 °F 18 °F 30.05 in WNW 3 mph 3 mph 72% 0.00 in 0 W/m2
03:20 25.9 °F 18.1 °F 30.05 in NW 2 mph 4 mph 72% 0.00 in 0 W/m2
03:25 25.8 °F 18 °F 30.05 in NW 2 mph 4 mph 72% 0.00 in 0 W/m2
03:30 25.9 °F 18.1 °F 30.05 in West 3 mph 3 mph 72% 0.00 in 0 W/m2
03:35 25.9 °F 17.8 °F 30.04 in South 3 mph 3 mph 71% 0.00 in 0 W/m2
03:40 25.9 °F 17.8 °F 30.04 in NNW 3 mph 5 mph 71% 0.00 in 0 W/m2
03:45 26 °F 17.9 °F 30.04 in NNW 3 mph 5 mph 71% 0.00 in 0 W/m2
03:50 26 °F 17.9 °F 30.03 in NW 3 mph 4 mph 71% 0.00 in 0 W/m2
03:55 26 °F 17.9 °F 30.03 in SW 2 mph 4 mph 71% 0.00 in 0 W/m2
04:00 26 °F 17.9 °F 30.03 in NW 2 mph 2 mph 71% 0.00 in 0 W/m2
04:05 26 °F 17.9 °F 30.03 in NNW 2 mph 4 mph 71% 0.00 in 0 W/m2
04:10 26 °F 17.9 °F 30.03 in NW 2 mph 3 mph 71% 0.00 in 0 W/m2
04:15 26 °F 17.9 °F 30.04 in NW 2 mph 3 mph 71% 0.00 in 0 W/m2
04:20 26 °F 17.9 °F 30.04 in West 2 mph 2 mph 71% 0.00 in 0 W/m2
04:25 26 °F 17.9 °F 30.03 in NW 2 mph 2 mph 71% 0.00 in 0 W/m2
04:30 25.9 °F 17.8 °F 30.03 in West 1 mph 2 mph 71% 0.00 in 0 W/m2
04:35 25.9 °F 18.1 °F 30.03 in WNW 2 mph 2 mph 72% 0.00 in 0 W/m2
04:40 25.9 °F 17.8 °F 30.03 in WNW 2 mph 2 mph 71% 0.00 in 0 W/m2
04:45 25.8 °F 18 °F 30.03 in West 2 mph 2 mph 72% 0.00 in 0 W/m2
04:50 25.8 °F 18 °F 30.03 in NW 2 mph 2 mph 72% 0.00 in 0 W/m2
04:55 25.7 °F 17.9 °F 30.04 in WSW 2 mph 2 mph 72% 0.00 in 0 W/m2
05:00 25.7 °F 17.9 °F 30.04 in WNW 1 mph 2 mph 72% 0.00 in 0 W/m2
05:05 25.6 °F 17.8 °F 30.04 in West 2 mph 2 mph 72% 0.00 in 0 W/m2
05:10 25.6 °F 17.8 °F 30.03 in NW 1 mph 1 mph 72% 0.00 in 0 W/m2
05:15 25.6 °F 17.8 °F 30.03 in WNW 1 mph 2 mph 72% 0.00 in 0 W/m2
05:20 25.6 °F 17.8 °F 30.03 in NW 1 mph 2 mph 72% 0.00 in 0 W/m2
05:25 25.6 °F 18.1 °F 30.03 in NW 2 mph 3 mph 73% 0.00 in 0 W/m2
05:30 25.6 °F 18.1 °F 30.03 in West 2 mph 2 mph 73% 0.00 in 0 W/m2
05:35 25.6 °F 18.1 °F 30.03 in WNW 1 mph 2 mph 73% 0.00 in 0 W/m2
05:40 25.6 °F 18.1 °F 30.03 in NW 1 mph 1 mph 73% 0.00 in 0 W/m2
05:45 25.5 °F 18 °F 30.03 in NW 1 mph 1 mph 73% 0.00 in 0 W/m2
05:50 25.5 °F 18 °F 30.03 in NW 2 mph 2 mph 73% 0.00 in 0 W/m2
05:55 25.4 °F 18.3 °F 30.03 in WSW 1 mph 3 mph 74% 0.00 in 0 W/m2
06:00 25.4 °F 18.3 °F 30.02 in West 1 mph 2 mph 74% 0.00 in 0 W/m2
06:05 25.4 °F 18.3 °F 30.02 in North 1 mph 2 mph 74% 0.00 in 0 W/m2
06:10 25.4 °F 18.3 °F 30.02 in NW 1 mph 1 mph 74% 0.00 in 0 W/m2
06:15 25.4 °F 18.3 °F 30.02 in West 1 mph 1 mph 74% 0.00 in 0 W/m2
06:25 25.2 °F 17.8 °F 30.02 in WNW 1 mph 1 mph 73% 0.00 in 0 W/m2
06:30 25.2 °F 18.1 °F 30.02 in West 1 mph 1 mph 74% 0.00 in 0 W/m2
06:35 25.2 °F 18.1 °F 30.02 in NW 1 mph 1 mph 74% 0.00 in 0 W/m2
06:40 25.1 °F 17.7 °F 30.02 in NW 1 mph 1 mph 73% 0.00 in 0 W/m2
06:45 25.1 °F 18 °F 30.02 in NW 1 mph 1 mph 74% 0.00 in 0 W/m2
06:50 25.1 °F 18 °F 30.02 in WNW 1 mph 1 mph 74% 0.00 in 0 W/m2
06:55 25.1 °F 18 °F 30.03 in West 1 mph 1 mph 74% 0.00 in 0 W/m2
07:00 25.1 °F 18 °F 30.03 in WNW 1 mph 1 mph 74% 0.00 in 0 W/m2
07:05 25.1 °F 18 °F 30.03 in WSW 1 mph 2 mph 74% 0.00 in 0 W/m2
07:10 25.1 °F 18 °F 30.03 in WSW 1 mph 2 mph 74% 0.00 in 0 W/m2
07:15 25.2 °F 18.1 °F 30.03 in WSW 1 mph 2 mph 74% 0.00 in 0 W/m2
07:20 25.3 °F 18.5 °F 30.02 in NNW 1 mph 1 mph 75% 0.00 in 0 W/m2
07:25 25.4 °F 18.6 °F 30.02 in Calm   1 mph 75% 0.00 in 0 W/m2
07:30 25.8 °F 19.9 °F 30.02 in WNW 1 mph 2 mph 78% 0.00 in 0 W/m2
07:35 26.3 °F 21 °F 30.02 in WSW 1 mph 2 mph 80% 0.00 in 0 W/m2
07:40 26.4 °F 21.1 °F 30.02 in WNW 1 mph 1 mph 80% 0.00 in 5 W/m2
07:45 26.4 °F 21.1 °F 30.02 in ESE 1 mph 1 mph 80% 0.00 in 5 W/m2
07:50 26.4 °F 21.1 °F 30.02 in ESE 2 mph 4 mph 80% 0.00 in 7 W/m2
07:55 26.4 °F 20.8 °F 30.02 in SE 2 mph 4 mph 79% 0.00 in 12 W/m2
08:00 26.3 °F 20.7 °F 30.02 in ESE 2 mph 2 mph 79% 0.00 in 12 W/m2
08:05 26.4 °F 21.1 °F 30.02 in West 1 mph 2 mph 80% 0.00 in 19 W/m2
08:10 26.4 °F 21.1 °F 30.01 in West 1 mph 2 mph 80% 0.00 in 28 W/m2
08:15 26.4 °F 21.1 °F 30.01 in WNW 2 mph 2 mph 80% 0.00 in 32 W/m2
08:20 26.5 °F 21.2 °F 30.01 in NW 2 mph 2 mph 80% 0.00 in 32 W/m2
08:25 26.6 °F 21.3 °F 30.01 in ENE 2 mph 2 mph 80% 0.00 in 40 W/m2
08:30 26.6 °F 21 °F 30.01 in NW 2 mph 2 mph 79% 0.00 in 35 W/m2
08:35 26.7 °F 20.8 °F 30.02 in NNW 2 mph 2 mph 78% 0.00 in 40 W/m2
08:40 26.7 °F 21.1 °F 30.02 in NNW 2 mph 3 mph 79% 0.00 in 49 W/m2
08:45 26.9 °F 21.3 °F 30.02 in South 2 mph 3 mph 79% 0.00 in 56 W/m2
08:50 27 °F 21.4 °F 30.02 in NW 2 mph 2 mph 79% 0.00 in 70 W/m2
08:55 27 °F 21.1 °F 30.02 in NNW 2 mph 2 mph 78% 0.00 in 63 W/m2
09:00 27 °F 21.1 °F 30.02 in NW 2 mph 2 mph 78% 0.00 in 54 W/m2
09:05 27 °F 21.4 °F 30.02 in NE 2 mph 2 mph 79% 0.00 in 53 W/m2
09:10 27.1 °F 21.2 °F 30.02 in South 2 mph 2 mph 78% 0.00 in 58 W/m2
09:15 27 °F 21.4 °F 30.02 in North 2 mph 2 mph 79% 0.00 in 62 W/m2
09:20 27.1 °F 21.2 °F 30.02 in ENE 2 mph 2 mph 78% 0.00 in 69 W/m2
09:25 27 °F 21.1 °F 30.02 in NW 2 mph 2 mph 78% 0.00 in 76 W/m2
09:30 27.2 °F 21.2 °F 30.02 in WNW 2 mph 3 mph 78% 0.00 in 79 W/m2
09:35 27.3 °F 21.3 °F 30.02 in NNW 2 mph 3 mph 78% 0.00 in 86 W/m2
09:40 27.4 °F 21.1 °F 30.01 in East 2 mph 2 mph 77% 0.00 in 105 W/m2
09:45 27.5 °F 21.5 °F 30.01 in West 2 mph 2 mph 78% 0.00 in 118 W/m2
09:50 27.6 °F 21.3 °F 30.01 in WNW 2 mph 2 mph 77% 0.00 in 132 W/m2
09:55 27.6 °F 21.3 °F 30.01 in North 2 mph 2 mph 77% 0.00 in 127 W/m2
10:00 27.8 °F 21.5 °F 30.01 in WNW 2 mph 2 mph 77% 0.00 in 121 W/m2
10:05 27.8 °F 21.2 °F 30.01 in North 2 mph 2 mph 76% 0.00 in 121 W/m2
10:10 27.8 °F 21.2 °F 30.01 in NNW 2 mph 2 mph 76% 0.00 in 118 W/m2
10:15 27.9 °F 21.3 °F 30.01 in WNW 2 mph 2 mph 76% 0.00 in 120 W/m2
10:20 27.9 °F 21 °F 30.01 in SSE 2 mph 2 mph 75% 0.00 in 132 W/m2
10:25 27.9 °F 21 °F 30.00 in NW 2 mph 2 mph 75% 0.00 in 149 W/m2
10:30 28.1 °F 21.2 °F 30.00 in NW 2 mph 2 mph 75% 0.00 in 153 W/m2
10:35 28.2 °F 21.3 °F 30.00 in WNW 2 mph 2 mph 75% 0.00 in 153 W/m2
10:40 28.3 °F 21.4 °F 30.00 in WSW 2 mph 4 mph 75% 0.00 in 167 W/m2
10:45 28.4 °F 21.5 °F 30.00 in WNW 2 mph 4 mph 75% 0.00 in 171 W/m2
10:50 28.5 °F 21.6 °F 30.00 in SSE 2 mph 2 mph 75% 0.00 in 172 W/m2
10:55 28.6 °F 21.7 °F 30.00 in WNW 2 mph 2 mph 75% 0.00 in 162 W/m2
11:00 28.7 °F 21.8 °F 30.00 in North 2 mph 2 mph 75% 0.00 in 156 W/m2
11:05 28.7 °F 21.5 °F 30.00 in NE 2 mph 3 mph 74% 0.00 in 146 W/m2
11:10 28.6 °F 21.7 °F 30.00 in NNW 2 mph 3 mph 75% 0.00 in 132 W/m2
11:15 28.5 °F 21.6 °F 30.00 in North 2 mph 3 mph 75% 0.00 in 134 W/m2
11:20 28.6 °F 22 °F 30.00 in NNW 2 mph 2 mph 76% 0.00 in 137 W/m2
11:25 28.5 °F 21.9 °F 29.99 in SSE 2 mph 2 mph 76% 0.00 in 121 W/m2
11:30 28.5 °F 21.9 °F 29.99 in NW 2 mph 3 mph 76% 0.00 in 148 W/m2
11:35 28.6 °F 22 °F 29.99 in SSW 2 mph 3 mph 76% 0.00 in 163 W/m2
11:40 28.7 °F 22.1 °F 29.99 in WSW 2 mph 2 mph 76% 0.00 in 174 W/m2
11:45 28.8 °F 21.9 °F 29.98 in West 2 mph 2 mph 75% 0.00 in 156 W/m2
11:50 28.8 °F 21.9 °F 29.98 in NNE 2 mph 2 mph 75% 0.00 in 142 W/m2
11:55 28.8 °F 21.9 °F 29.98 in NW 2 mph 2 mph 75% 0.00 in 137 W/m2
12:00 28.7 °F 21.8 °F 29.97 in East 2 mph 2 mph 75% 0.00 in 137 W/m2
12:05 28.8 °F 21.9 °F 29.97 in West 2 mph 2 mph 75% 0.00 in 137 W/m2
12:10 28.8 °F 21.9 °F 29.97 in SE 2 mph 2 mph 75% 0.00 in 130 W/m2
12:15 28.8 °F 22.2 °F 29.97 in SW 2 mph 2 mph 76% 0.00 in 135 W/m2
12:20 28.9 °F 22.3 °F 29.97 in SW 2 mph 2 mph 76% 0.00 in 141 W/m2
12:25 28.9 °F 22.3 °F 29.96 in SSW 2 mph 2 mph 76% 0.00 in 141 W/m2
12:30 29 °F 22.4 °F 29.96 in WNW 2 mph 2 mph 76% 0.00 in 137 W/m2
12:35 29 °F 22.4 °F 29.96 in NNW 2 mph 2 mph 76% 0.00 in 125 W/m2
12:40 29.1 °F 22.8 °F 29.96 in North 2 mph 2 mph 77% 0.00 in 114 W/m2
12:45 29 °F 22.4 °F 29.96 in NE 2 mph 3 mph 76% 0.00 in 97 W/m2
12:50 29 °F 22.4 °F 29.96 in SE 1 mph 1 mph 76% 0.00 in 95 W/m2
12:55 29 °F 22.4 °F 29.96 in North 1 mph 2 mph 76% 0.00 in 90 W/m2
13:00 28.9 °F 22.3 °F 29.95 in SSW 1 mph 2 mph 76% 0.00 in 77 W/m2
13:05 28.9 °F 22 °F 29.95 in ESE 2 mph 2 mph 75% 0.00 in 70 W/m2
13:10 28.9 °F 22 °F 29.95 in NE 2 mph 2 mph 75% 0.00 in 69 W/m2
13:15 29 °F 22.4 °F 29.95 in NNE 1 mph 2 mph 76% 0.00 in 70 W/m2
13:20 29.1 °F 22.5 °F 29.95 in NE 1 mph 2 mph 76% 0.00 in 83 W/m2
13:25 29.2 °F 22.6 °F 29.95 in SE 1 mph 2 mph 76% 0.00 in 104 W/m2
13:30 29.3 °F 22.7 °F 29.94 in North 1 mph 1 mph 76% 0.00 in 123 W/m2
13:35 29.4 °F 22.8 °F 29.94 in NW 1 mph 1 mph 76% 0.00 in 132 W/m2
13:40 29.5 °F 22.9 °F 29.94 in ESE 1 mph 2 mph 76% 0.00 in 128 W/m2
13:45 29.6 °F 23 °F 29.94 in NNW 1 mph 2 mph 76% 0.00 in 114 W/m2
13:50 29.6 °F 23 °F 29.93 in East 1 mph 1 mph 76% 0.00 in 93 W/m2
13:55 29.6 °F 23 °F 29.93 in WNW 1 mph 1 mph 76% 0.00 in 91 W/m2
14:05 29.8 °F 23.2 °F 29.93 in NE 1 mph 1 mph 76% 0.00 in 100 W/m2
14:10 29.8 °F 23.2 °F 29.93 in ESE 1 mph 2 mph 76% 0.00 in 100 W/m2
14:15 29.7 °F 23.1 °F 29.93 in NNE 1 mph 1 mph 76% 0.00 in 81 W/m2
14:20 29.5 °F 23.2 °F 29.93 in SSE 1 mph 2 mph 77% 0.00 in 70 W/m2
14:25 29.4 °F 23.1 °F 29.92 in SE 1 mph 1 mph 77% 0.00 in 62 W/m2
14:30 29.4 °F 23.4 °F 29.92 in ESE 1 mph 2 mph 78% 0.00 in 47 W/m2
14:35 29.2 °F 23.5 °F 29.92 in North 1 mph 1 mph 79% 0.00 in 46 W/m2
14:40 29 °F 23.6 °F 29.92 in West 1 mph 1 mph 80% 0.00 in 49 W/m2
14:45 28.8 °F 23.7 °F 29.91 in ESE 2 mph 3 mph 81% 0.00 in 49 W/m2
14:50 28.7 °F 23.9 °F 29.91 in SE 2 mph 3 mph 82% 0.00 in 49 W/m2
14:55 28.7 °F 23.9 °F 29.91 in SE 2 mph 2 mph 82% 0.00 in 53 W/m2
15:00 28.6 °F 24.1 °F 29.91 in SE 2 mph 2 mph 83% 0.00 in 74 W/m2
Sand Point, Michigan, USA
Compliments of Weather Underground - 2 mb